View from above orbital plane
|
View from above satellite
|
Ground track
|
The orbit data is extracted from the following two-line orbital elements,
1 47048U 93036BXC 22176.27371735 .00001457 00000-0 45568-3 0 9995
2 47048 73.9838 152.0054 0180231 271.3011 151.1916 14.32790630414480
Epoch (UTC): | 25 June 2022 06:34:09 |
Eccentricity: | 0.0180231 |
inclination: | 73.9838° |
perigee height: | 653 km |
apogee height: | 911 km |
right ascension of ascending node: | 152.0054° |
argument of perigee: | 271.3011° |
revolutions per day: | 14.32790630 |
mean anomaly at epoch: | 151.1916° |
orbit number at epoch: | 41448 |
The dashed part of the orbit path shows where the satellite is in the earth's shadow,
|
|